Wind_Speed
54 55 56 57 58 59 61 62 64 65 65 66 66 67 66 66 65 64 64 64 64 64 63 64 65 66 66 67 68 69 69 70 68 64 62 60 60 59 57 56 54 53 49
55 56 57 58 59 61 62 64 66 66 67 67 68 67 66 65 65 64 64 64 63 63 64 64 65 65 65 66 67 67 68 68 67 64 60 59 58 57 56 55 53 51 48
57 58 59 60 62 63 65 66 66 67 67 67 67 67 66 65 64 64 63 63 63 63 64 64 64 64 64 65 66 66 66 66 65 63 60 58 56 55 54 53 51 49 46
59 60 61 62 64 65 66 66 67 67 66 66 65 64 63 63 63 62 61 61 62 62 63 64 63 63 64 64 65 65 65 64 63 62 59 57 55 53 52 51 49 47 45
61 62 63 64 65 65 65 64 64 63 63 62 62 60 59 59 59 59 59 60 61 61 62 63 62 62 63 63 63 63 63 63 61 60 58 56 54 52 50 50 48 45 43
62 62 62 63 63 62 62 61 60 60 59 59 58 57 57 56 56 57 57 58 59 60 60 60 60 61 62 62 61 62 62 61 60 58 56 55 52 51 49 48 46 44 41
60 60 59 58 58 57 57 57 56 57 58 57 56 55 54 54 55 55 56 56 57 57 58 58 59 60 61 60 59 60 59 58 57 56 54 53 51 50 48 46 44 42 40
56 55 55 54 54 54 54 54 55 56 56 54 54 53 53 54 55 55 56 56 55 55 56 57 58 59 59 59 58 58 57 55 54 53 53 51 49 47 45 43 42 40 37
53 53 53 53 52 52 53 53 54 55 54 54 54 53 53 53 54 55 54 55 54 54 55 56 57 57 57 57 57 56 55 53 52 51 50 48 46 45 43 42 40 38 35
53 53 53 54 54 54 54 55 54 54 54 54 53 53 53 53 53 53 53 53 53 53 54 55 55 56 56 55 55 54 53 51 50 49 48 46 45 43 41 39 38 36 33
53 54 54 55 55 55 55 54 54 54 54 54 53 52 52 52 51 51 51 51 52 52 52 53 53 54 54 53 53 52 51 50 48 47 46 45 44 42 40 38 36 34 31
54 55 55 55 55 55 55 55 55 54 54 53 52 52 51 51 50 50 50 50 50 50 50 51 52 52 52 51 50 49 49 48 47 46 44 43 42 40 38 36 34 31 28
55 56 55 55 55 55 55 54 53 53 53 52 51 51 50 49 49 48 48 49 49 48 48 49 50 50 50 49 48 48 47 46 45 43 42 41 39 37 35 33 31 29 26
55 55 54 54 54 54 53 53 53 52 52 51 49 49 48 47 47 46 47 47 47 46 46 47 48 48 48 47 46 46 45 44 42 41 39 38 36 34 32 30 28 26 24
55 54 54 54 54 53 52 52 52 51 50 49 48 47 46 45 44 45 45 45 44 43 44 45 46 46 45 45 44 43 42 40 39 38 36 35 33 31 29 27 25 23 22
54 54 54 54 53 52 51 50 49 49 47 46 46 45 43 42 43 43 42 41 41 41 41 42 43 43 43 42 41 40 39 37 36 35 33 31 29 28 27 25 23 21 20
53 53 52 52 52 50 49 48 47 46 45 44 43 42 41 41 40 39 38 38 38 39 39 40 41 41 40 39 38 36 35 34 33 32 30 28 27 25 24 22 21 19 17
52 52 51 51 50 49 47 46 45 44 43 42 41 40 39 38 36 35 35 35 36 36 37 38 39 38 37 36 35 34 33 31 30 29 27 25 24 23 21 20 19 17 15
50 50 50 49 48 47 46 45 44 43 42 41 41 39 38 35 33 33 33 33 34 34 36 36 36 35 34 33 32 31 30 29 28 26 24 23 22 21 19 18 17 14 12
48 48 48 47 46 46 45 44 43 42 41 40 38 36 34 32 31 31 31 31 32 33 33 33 33 32 31 30 29 28 27 26 25 23 22 21 20 19 18 16 14 12 9
47 46 46 46 45 44 44 43 42 41 40 38 35 32 31 29 29 29 29 29 30 30 30 30 30 30 28 26 26 25 24 23 22 21 20 19 18 17 16 14 12 10 7
45 45 45 44 43 43 43 42 41 40 37 34 31 29 28 27 27 27 26 27 27 28 28 29 28 27 25 23 23 22 22 22 21 20 19 18 17 16 15 13 10 8 6
44 45 44 43 42 42 41 40 38 36 33 30 28 27 26 25 24 24 24 25 26 26 26 27 26 24 22 21 21 22 22 22 21 20 19 17 17 15 14 11 8 6 5
44 43 42 41 40 39 38 36 34 32 30 27 25 24 23 23 22 22 22 23 23 24 24 24 23 22 21 20 20 21 22 21 21 20 18 17 16 14 12 10 7 5 4
41 40 40 39 38 36 35 33 31 29 26 24 22 22 21 20 20 20 20 21 21 22 23 23 22 21 20 20 20 20 21 20 19 19 17 16 14 12 11 9 6 4 3
38 37 37 36 35 33 31 29 28 26 23 21 20 19 18 18 18 18 19 19 20 21 21 21 21 20 20 20 20 19 19 18 18 17 16 13 12 10 8 7 5 2 3
Wind_Direction
292 292 293 294 294 293 294 294 294 295 297 298 298 299 300 300 300 300 301 302 303 304 305 306 307 307 308 309 310 311 312 313 314 314 312 310 309 308 308 308 306 305 303
293 293 293 294 293 293 294 294 295 296 297 297 298 299 299 299 299 299 300 301 302 303 304 305 306 307 308 309 310 311 312 312 313 314 313 310 309 308 308 308 307 305 302
293 293 293 293 293 293 294 294 295 296 297 297 297 298 298 298 298 299 300 300 301 302 303 304 306 307 308 309 310 311 312 312 313 313 313 311 310 309 308 308 307 305 302
295 294 294 293 293 293 294 294 295 296 297 297 297 298 298 298 298 299 299 300 300 302 303 304 306 307 308 309 310 311 312 312 312 312 312 312 311 310 308 308 308 305 302
296 296 295 294 294 294 295 295 296 296 296 296 297 297 297 298 299 299 299 299 300 301 303 304 305 307 308 309 310 310 311 312 312 312 312 312 312 311 309 309 309 306 302
297 297 296 295 295 295 296 295 296 296 296 296 297 297 298 298 299 299 299 299 300 301 303 304 305 307 308 309 309 310 311 312 312 312 313 312 312 311 310 309 309 306 303
300 299 298 297 297 297 296 296 296 296 296 297 297 297 297 298 298 298 298 299 299 300 302 304 305 306 307 308 309 310 311 311 312 312 313 313 312 311 310 308 308 306 303
301 301 300 300 299 299 299 298 297 297 298 297 297 297 297 297 296 297 298 298 299 300 302 304 305 306 307 309 310 310 311 311 311 312 312 312 311 310 309 307 306 305 302
303 302 301 301 300 300 301 301 300 299 298 297 297 297 297 296 296 296 297 298 299 301 302 304 306 307 308 309 310 311 311 311 311 312 312 312 311 310 308 307 306 304 302
304 303 302 301 301 301 301 301 300 300 298 297 297 296 297 296 295 296 296 298 299 300 302 304 306 307 308 310 311 311 312 312 312 312 312 311 311 309 307 305 304 303 301
304 303 303 302 302 302 302 301 301 300 299 298 297 296 296 295 295 295 296 298 299 300 302 305 306 308 309 311 311 312 313 313 313 313 312 311 310 309 307 305 303 302 299
305 304 304 303 303 303 303 302 301 300 299 298 297 296 295 295 294 294 296 298 299 301 303 305 306 308 310 311 312 312 313 313 314 314 312 312 311 309 307 305 303 300 297
306 305 305 304 304 304 304 303 302 302 300 300 299 297 295 295 294 294 295 297 299 301 303 305 307 309 311 313 313 313 314 314 314 314 313 312 311 309 307 305 302 298 294
307 306 306 306 306 306 305 304 304 303 302 301 300 299 296 295 295 295 296 297 299 301 303 306 308 310 313 314 314 314 315 315 315 315 314 313 312 310 308 307 303 298 293
308 308 308 308 308 307 306 306 305 305 303 302 300 300 298 297 296 296 297 298 300 302 304 306 309 312 314 315 316 316 316 316 316 317 315 315 313 311 310 309 305 300 294
308 308 308 309 309 308 307 307 306 306 306 305 302 299 299 298 297 298 298 299 301 303 305 308 311 313 316 317 318 319 319 319 319 319 318 317 315 313 311 310 306 301 296
308 309 310 310 310 309 308 308 308 307 307 306 304 301 300 299 299 299 300 300 302 304 307 309 312 315 317 319 320 321 322 322 322 322 320 319 319 317 314 312 309 305 297
309 310 310 311 311 311 309 309 309 308 307 306 305 303 302 301 299 300 301 302 304 306 309 311 314 316 318 320 321 322 323 324 324 324 324 323 322 321 318 315 312 307 299
309 310 310 311 312 312 311 310 309 308 308 308 306 305 302 300 299 301 302 304 306 309 311 313 315 317 319 321 323 324 325 326 327 326 326 326 326 325 323 321 319 314 305
310 310 310 311 312 312 312 311 310 310 309 309 307 305 303 301 301 303 303 306 308 311 314 316 317 319 321 323 325 327 328 330 330 331 330 329 328 327 326 325 325 321 311
310 311 311 312 312 313 312 312 311 310 310 308 306 304 303 301 302 303 304 307 309 313 316 317 320 321 324 326 328 330 332 333 334 335 334 332 329 327 326 325 325 324 315
311 312 312 313 313 313 312 312 312 311 310 309 306 305 303 302 303 304 306 308 311 314 317 320 322 324 326 327 330 332 333 334 335 335 335 332 330 329 327 324 320 315 303
311 312 313 313 313 313 313 313 313 312 310 308 306 306 305 304 305 307 308 309 313 316 320 324 326 327 328 329 330 331 333 334 335 335 334 332 330 329 328 326 320 306 289
312 313 314 314 315 315 315 315 315 314 312 310 308 306 307 308 308 309 310 312 315 319 323 327 328 328 329 329 330 331 333 334 335 336 333 331 329 327 326 325 317 302 276
314 314 315 316 316 316 316 317 316 316 313 310 308 308 309 310 311 313 314 315 319 323 327 329 330 329 330 330 330 330 333 335 336 336 335 333 331 328 323 321 315 297 255
315 316 317 317 318 318 318 318 319 318 316 313 311 310 312 314 314 316 318 319 323 326 329 330 331 331 331 331 331 330 332 334 336 339 340 339 337 335 332 327 319 282 201
Height
5680 5674 5669 5663 5655 5649 5642 5635 5628 5620 5613 5605 5598 5590 5582 5574 5566 5558 5551 5543 5535 5526 5517 5507 5498 5487 5478 5467 5456 5445 5434 5422 5412 5405 5392 5380 5368 5357 5347 5337 5327 5319 5312
5665 5659 5653 5647 5639 5632 5626 5619 5611 5604 5596 5589 5581 5573 5566 5558 5550 5542 5535 5527 5519 5510 5501 5492 5482 5471 5462 5451 5440 5429 5418 5406 5395 5386 5377 5365 5354 5343 5333 5324 5315 5306 5299
5650 5643 5637 5630 5623 5616 5609 5602 5594 5587 5579 5572 5564 5557 5549 5541 5534 5526 5519 5511 5503 5494 5485 5476 5467 5456 5446 5436 5425 5414 5403 5391 5379 5369 5362 5351 5341 5330 5320 5311 5302 5294 5287
5634 5627 5621 5613 5606 5599 5592 5584 5577 5569 5562 5555 5547 5540 5532 5525 5517 5510 5502 5495 5487 5479 5470 5461 5451 5441 5431 5421 5410 5399 5388 5377 5365 5355 5346 5337 5327 5317 5307 5298 5290 5282 5275
5618 5611 5603 5596 5588 5581 5574 5566 5559 5552 5545 5537 5530 5523 5516 5508 5501 5494 5486 5479 5471 5463 5455 5446 5437 5427 5416 5406 5396 5385 5374 5363 5352 5341 5331 5322 5313 5304 5295 5285 5277 5270 5264
5600 5593 5586 5578 5571 5563 5556 5549 5542 5535 5528 5521 5514 5507 5500 5493 5486 5478 5471 5464 5456 5448 5440 5431 5422 5412 5402 5392 5382 5371 5360 5349 5338 5328 5318 5309 5300 5291 5282 5274 5266 5259 5253
5583 5576 5568 5561 5554 5547 5540 5533 5526 5519 5512 5505 5498 5491 5485 5478 5470 5463 5455 5449 5441 5434 5426 5417 5408 5398 5388 5378 5368 5358 5347 5335 5325 5315 5306 5297 5288 5280 5271 5263 5255 5248 5243
5567 5560 5552 5545 5538 5531 5524 5517 5510 5503 5497 5490 5483 5476 5470 5463 5455 5448 5441 5434 5427 5420 5411 5403 5394 5385 5374 5364 5355 5345 5335 5325 5314 5304 5294 5286 5277 5268 5260 5253 5246 5239 5234
5552 5545 5537 5530 5524 5517 5510 5502 5495 5488 5481 5475 5468 5461 5455 5448 5441 5434 5426 5420 5413 5406 5398 5389 5380 5371 5361 5351 5342 5333 5323 5313 5303 5293 5283 5274 5265 5257 5249 5242 5236 5230 5225
5538 5531 5523 5516 5509 5502 5495 5487 5480 5473 5466 5459 5452 5446 5439 5433 5426 5419 5412 5406 5400 5392 5384 5376 5367 5358 5348 5338 5328 5319 5310 5301 5291 5282 5273 5264 5255 5247 5240 5233 5226 5220 5215
5524 5517 5509 5501 5494 5486 5479 5472 5464 5457 5450 5443 5437 5431 5424 5418 5412 5405 5398 5392 5386 5378 5371 5362 5354 5345 5335 5325 5316 5307 5298 5288 5279 5270 5261 5253 5245 5237 5230 5224 5217 5212 5207
5510 5502 5494 5486 5478 5471 5463 5456 5448 5441 5434 5427 5421 5415 5409 5403 5397 5391 5385 5379 5372 5365 5358 5349 5341 5332 5323 5314 5304 5295 5286 5277 5268 5259 5251 5242 5234 5227 5220 5214 5209 5203 5199
5496 5487 5479 5471 5463 5455 5447 5440 5433 5425 5419 5412 5406 5400 5394 5388 5383 5377 5371 5365 5358 5352 5345 5337 5329 5320 5311 5302 5293 5284 5275 5266 5257 5249 5240 5232 5225 5218 5211 5205 5200 5196 5192
5481 5473 5465 5457 5449 5440 5432 5425 5417 5410 5404 5397 5391 5385 5379 5374 5369 5364 5358 5352 5345 5339 5332 5325 5317 5309 5300 5291 5282 5273 5265 5256 5248 5239 5231 5223 5216 5209 5203 5197 5193 5189 5185
5466 5458 5450 5442 5434 5426 5418 5410 5403 5396 5389 5383 5377 5371 5365 5361 5356 5350 5345 5339 5333 5327 5321 5314 5306 5298 5290 5281 5272 5263 5255 5247 5238 5230 5222 5215 5208 5201 5196 5191 5186 5182 5180
5452 5444 5436 5428 5419 5411 5404 5397 5389 5383 5376 5369 5363 5358 5353 5348 5343 5338 5333 5328 5322 5316 5310 5303 5296 5288 5280 5272 5263 5254 5246 5238 5230 5223 5215 5208 5201 5195 5190 5185 5181 5177 5174
5437 5430 5422 5414 5406 5398 5390 5383 5377 5371 5364 5358 5351 5346 5341 5336 5331 5327 5322 5317 5312 5306 5300 5294 5286 5279 5271 5263 5255 5247 5239 5231 5224 5216 5209 5203 5196 5190 5185 5180 5176 5173 5170
5424 5416 5409 5401 5393 5385 5378 5371 5365 5358 5353 5347 5341 5335 5330 5325 5321 5316 5312 5307 5302 5297 5291 5284 5277 5270 5263 5255 5248 5240 5233 5225 5218 5211 5204 5198 5192 5186 5181 5177 5173 5169 5167
5411 5404 5397 5389 5382 5374 5367 5360 5354 5347 5341 5335 5330 5324 5319 5315 5311 5307 5302 5298 5293 5288 5282 5276 5269 5262 5255 5248 5241 5234 5227 5220 5213 5207 5200 5194 5189 5184 5179 5174 5170 5167 5164
5399 5392 5384 5377 5370 5363 5356 5349 5343 5337 5331 5325 5319 5314 5309 5305 5302 5298 5294 5290 5285 5280 5274 5268 5262 5255 5249 5242 5235 5229 5222 5216 5209 5203 5197 5192 5186 5182 5177 5173 5169 5166 5164
5388 5381 5373 5366 5359 5352 5345 5339 5332 5326 5320 5314 5309 5305 5301 5297 5293 5290 5286 5282 5277 5272 5267 5261 5255 5249 5243 5237 5231 5224 5218 5212 5206 5200 5195 5190 5185 5180 5176 5172 5168 5166 5164
5376 5369 5363 5355 5348 5342 5335 5328 5322 5316 5310 5305 5300 5296 5293 5289 5286 5282 5279 5275 5271 5266 5261 5255 5249 5243 5238 5232 5227 5221 5215 5209 5203 5198 5193 5188 5183 5178 5174 5171 5168 5166 5164
5365 5359 5352 5345 5338 5331 5325 5318 5312 5306 5301 5296 5292 5289 5285 5282 5279 5276 5272 5269 5264 5260 5255 5250 5244 5239 5233 5228 5223 5217 5212 5206 5201 5195 5190 5186 5181 5177 5173 5170 5167 5165 5164
5355 5348 5341 5335 5328 5322 5315 5309 5303 5298 5293 5289 5285 5282 5279 5276 5273 5270 5266 5263 5259 5255 5250 5245 5239 5234 5229 5224 5219 5214 5209 5203 5198 5193 5188 5184 5179 5175 5172 5169 5166 5164 5163
5345 5338 5332 5325 5319 5313 5307 5301 5296 5291 5286 5283 5279 5277 5274 5271 5268 5265 5262 5258 5254 5250 5246 5240 5235 5230 5226 5221 5216 5211 5206 5200 5195 5190 5186 5182 5177 5174 5171 5168 5166 5164 5163
5335 5329 5323 5317 5311 5305 5300 5295 5290 5285 5281 5277 5274 5272 5269 5266 5263 5261 5258 5254 5250 5246 5241 5236 5232 5227 5222 5217 5212 5208 5203 5198 5193 5188 5184 5180 5176 5173 5170 5167 5165 5164 5163